Location: Newark
(48.9320°N, 2.2664°E)
Time: 15:38:20
(UTC+00:00)

Vanguard 1 Rocket - Pass Details

Date: 26 February 2020
Orbit: 650 x 4227 km, 34.3° (Epoch: 30 March)

Event Time Altitude Azimuth Distance (km) Brightness Sun altitude
Rises 23:43:07 0° 217° (SW) 6,601 - -49.5°
Reaches altitude 10° 23:49:47 10° 203° (SSW) 4,824 - -49.6°
Maximum altitude 23:57:19 19° 165° (SSE) 3,241 - -49.7°
Drops below altitude 10° 00:02:35 10° 124° (SE) 3,206 - -49.7°
Sets 00:05:47 0° 105° (ESE) 3,779 - -49.7°
